Вернуться в каталог

STARLINK-5129

АктивенСвязьVLEO
NORAD 54004·PAYLOAD·🇺🇸 United States

Запущен Oct 5, 2022 с Vandenberg Space Force Base

Loading…

Ближайшие Пролёты (ближайшие 24 часа)

TLE

СвежийSource: CelesTrak SupGP

Эпоха: Sep 14, 2026, 21:59 UTC

1 54004C 22125AS  26257.91645833  .00736460  00000+0  36824-1 0  2572
2 54004  53.1594  83.5488 0001289  86.9651   0.0605 15.16562986    14

Отслеживайте STARLINK-5129 в реальном времени с AllMySat

Download on the App Store